Tracking 32954 objects as of 18-Jan-2026
HD Live streaming from Space Station
objects crossing your sky now

ARIANE 5 DEB (SYLDA)

Track ARIANE 5 DEB (SYLDA) now!


NORAD ID: 44037
Int'l Code: 2019-007D
Perigee: 239.1 km
Apogee: 33,471.3 km
Inclination: 2.8 °
Period: 587.1 minutes
Semi major axis: 23226 km
RCS: Unknown
Launch date: February 5, 2019
Source: France (FR)
Launch site: FRENCH GUIANA (FRGUI)

Note: This is SATELLITE DEBRIS
Your satellite tracking list
Your tracking list is empty




NASA's NSSDC Master Catalog

Two Line Element Set (TLE):
1 44037U 19007D   26017.45001646  .00007670  00000-0  13352-2 0  9993
2 44037   2.7738 269.7244 7154035 181.8276 172.6282  2.45264663 59324
Source of the keplerian elements: AFSPC